Showing default

OPS 9311 (IDSCS 1), 2215

Orbit data source: Space-Track

OPS 9311 (IDSCS 1), 2215 is a payload satellite owned by USAF SSD (US) in GEO that was launched on Thu, 16 Jun 1966 UTC via a TITAN IIIC launch vehicle from the Air Force Eastern Test Range (AFETR). Payload-class satellites include a variety of spacecraft equipped with specific instruments for various scientific and technological missions. These include communications satellites like Starlink; space stations such as the ISS; scientific satellites like the Hubble; Earth observation satellites from companies like Planet Labs, Umbra, and HawkEye 360; GPS; miniature CubeSats for education and research; and military/defense satellites.

Loading next visibility...
Identifier
2215, 1966-053B
Orbit
GEO
Country
Flag of USUS
Related business
Manufacturer
Philco-Ford WDL
Mission
Non-operational spacecraft
Bus & Motor
IDCSP, Unknown motor
Mass
45 kg wet, 45 kg dry
Launch date (UTC)
1966-06-16 (60 years ago)
Launch vehicle
TITAN IIIC
Launch site
Air Force Eastern Test Range (AFETR)
Object type
Payload
Rocket body
Debris
Shape & HBR
Unknown
Radar Cross Section
Medium (>0.1 m² and <1 m²)

Expand to show TLE details & history
Last TLE update: 1 week ago

TLE from 1 week ago
0 OPS 9311 (IDSCS 1)
1  2215U 66053B   26025.10304022 -.00000107  00000-0  00000+0 0  9995
2  2215   8.4056  45.0078 0032350 222.0517 137.7622  1.07909238132824
Epoch: 2026-01-25T02:28Z
TLE epoch observation values (Epoch: 2026-01-25T02:28:22.675Z)
Latitude
-0.00001°
Longitude
-116.43653°
Altitude
33,868.444 km
Speed
3.143 km/s
True Right ascension
03h 00m 18s
True Declination
0° 00' 00"
Sunlit
Object was in daylight at epoch
Visualization orbit readout
Latitude
Unknown
Longitude
Unknown
Altitude
Unknown
Speed
Unknown
Apparent Right ascension
Unknown
Apparent Declination
Unknown
Sunlit
N/A
Visualization observer readout
Local Sidereal Time
13:28:56
Azimuth
Unknown
Elevation
Unknown
Doppler factor
Unknown
Orbital elements
Apogee altitude
33,903.816 km
Perigee altitude
33,644.032 km
Semi-major axis
40,152.061 km
Eccentricity
0.00324
Inclination
8.4056°
RAAN
45.0078°
Arg. of periapsis
222.0517°
True anomaly
138.01065°
Mean anomaly
137.7622°
Eccentric anomaly
137.8865°
Mean motion
0.26976 °/min
Orbital period
1,334.51 mins
BSTAR
0
Loading maneuver chart data...
Computing Atmospheric mass density...
Loading historical data...
Loading historical data...
Loading historical data...
Loading historical data...
Loading historical data...
Loading historical data...
Loading historical data...

Documentation

Showing up to 5 results
|